Regional Weather Roundup
Issued by NWS State College, PA

Home | Current Version | Previous Version | Text Only | Print | Product List | Glossary Off
Versions: 1 2 3 4 5 6 7 8 9 10 11 12 13 14 15 16 17 18 19 20 21 22 23 24 25 26 27 28 29 30 31 32 33 34 35 36 37 38 39 40 41 42 43 44 45 46 47 48 49 50

000
ASUS41 KCTP 300703
RWRCTP

REGIONAL WEATHER ROUNDUP
NATIONAL WEATHER SERVICE STATE COLLEGE PA
300 AM EDT FRI SEP 30 2016

Note: "fair" indicates few or no clouds below 12,000 feet with no
significant weather and/or obstructions to visibility.

* = STATION THAT DOES NOT REPORT PRECIPITATION /E.G. RAIN...SNOW...ETC/
    THUNDER OR FOG.

PAZ002>004-007>009-013>016-020>023-029>032-300800-
WESTERN PENNSYLVANIA

CITY           SKY/WX    TMP DP  RH WIND       PRES   REMARKS
ERIE           CLOUDY    61  56  83 E12       30.21S
MEADVILLE      RAIN      57  54  89 VRB3      30.22S
FRANKLIN*        N/A     55  52  88 SE6       30.24R
NEW CASTLE     LGT RAIN  58  57  97 E14G21    30.18S
BEAVER COUNTY  NOT AVBL
BUTLER*        CLOUDY    55  54  94 NE6       30.22F
PITTSBURGH INT CLOUDY    58  58 100 E13       30.16R
PITTSBURGH     CLOUDY    57  55  93 NE6       30.16S
INDIANA*       CLOUDY    57  55  94 E6G14     30.22S FOG
LATROBE        CLOUDY    57  57 100 CALM      30.16F
WASHINGTON CO* CLOUDY    59  55  88 NE6       30.15S
$$

PAZ004>006-010>012-017>019-024>028-033>037-041-042-045-046-049>053-300800-
CENTRAL PENNSYLVANIA

CITY           SKY/WX    TMP DP  RH WIND       PRES   REMARKS
BRADFORD       CLOUDY    53  51  93 E12       30.26S
DUBOIS         CLOUDY    54  51  90 E10       30.22S
CLEARFIELD     LGT RAIN  53  53 100 E12       30.24S
JOHNSTOWN      LGT RAIN  53  53 100 E10G21    30.19S
ALTOONA        LGT RAIN  55  54  96 NE6       30.23R FOG
STATE COLLEGE  DRIZZLE   54  53  97 NE10      30.25F
WILLIAMSPORT   CLOUDY    57  52  83 E12       30.28S
SELINSGROVE    LGT RAIN  57  55  93 NE8       30.27S
FT INDIANTOWN  LGT RAIN  55  53  94 E15G26    30.24F
CAPITAL CITY   LGT RAIN  58  55  90 E13       30.22F
HARRISBURG     RAIN      58  57  97 E6        30.22F FOG
YORK           LGT RAIN  57  57 100 E14       30.20F
$$

PAZ038>040-043-044-047-048-054-055-060>062-067>071-300800-
EASTERN PENNSYLVANIA

CITY           SKY/WX    TMP DP  RH WIND       PRES   REMARKS
SCRANTON       LGT RAIN  53  48  83 NE13G21   30.32S
MOUNT POCONO   LGT RAIN  47  45  93 E14G22    30.33S
ALLENTOWN      LGT RAIN  54  50  86 NE14      30.30F
QUAKERTOWN*    CLOUDY    54  52  94 NE12      30.28F
READING        RAIN      55  53  93 N9        30.26F
LANCASTER      RAIN      57  57 100 E16G28    30.21F
COATESVILLE    HVY RAIN  55  55 100 NE8G16    30.23F
POTTSTOWN      RAIN      54  53  97 NE13G24   30.26F FOG
BLUE BELL      CLOUDY    54  54 100 NE10G20   30.23F
DOYLESTOWN     LGT RAIN  55  54  96 NE12G18   30.27S
WILLOW GROVE   NOT AVBL
NORTH PHILA    CLOUDY    59  56  89 NE22G30   30.25F FOG
PHILADELPHIA   LGT RAIN  59  57  93 NE21G29   30.20F FOG
$$



USA.gov is the U.S. government's official web portal to all federal, state and local government web resources and services.